カタログに戻る

BREEZE-M DEB

TANK

運用中HEO
NORAD 39010·DEBRIS·🇷🇺 Russia

打ち上げ Nov 20, 2012 から Baikonur Cosmodrome

Loading…

次のパス (今後24時間)

TLE

最新Source: Space-Track

元期: Sep 14, 2026, 06:04 UTC

1 39010U 12065C   26257.25307132  .00002175  00000-0  50971-3 0  9992
2 39010  49.6803  65.2084 4561532 223.0814  90.5790  6.32427196309749

AllMySatでBREEZE-M DEBをリアルタイム追跡

Download on the App Store